Weather History for Wautoma, WI

Change the Weather History Date:

Tuesday, September 10, 2013

  Actual Average (KPCZ) Record (KPCZ)
Temperature  
Mean Temperature 84 °F -  
Max Temperature 93 °F 74 °F 94 °F (2013)
Min Temperature 70 °F 51 °F 32 °F (1967)
Cooling Degree Days 18    
Growing Degree Days 34 (Base 50)    
Moisture  
Dew Point 64 °F    
Average Humidity 54    
Maximum Humidity 100    
Minimum Humidity 32    
Precipitation  
Precipitation 0.01 in - - ()
Sea Level Pressure  
Sea Level Pressure 29.86 in    
Wind  
Wind Speed 9 mph (WSW)    
Max Wind Speed 22 mph    
Max Gust Speed 28 mph    
Visibility 10 miles    
Events      
Averages and records for this station are not official NWS values.
T = Trace of Precipitation, MM = Missing Value Source: NWS Daily Summary

Daily Weather History Graph

Daily Weather History Graph

Search for Another Location

Airport:

Trip Planner

Search our weather history database for the weather conditions in past years. The results will help you decide how hot, cold, wet, or windy it might be!

Date:

Astronomy

Sep. 10, 2013 Rise Set
Actual Time 6:30 AM CDT 7:16 PM CDT
Civil Twilight 6:01 AM CDT 7:45 PM CDT
Nautical Twilight 5:26 AM CDT 8:20 PM CDT
Astronomical Twilight 4:50 AM CDT 8:56 PM CDT
Moon 12:09 PM CDT (9/10) 10:06 PM CDT (9/10)
Length of Visible Light 13h 43m
Length of Day
12h 45m
Waxing Crescent, 28% of the Moon is Illuminated
Sep 10
Waxing Crescent
Sep 12
First Quarter
Sep 19
Full
Sep 26
Last Quarter
Oct 4
New

Hourly Weather History & Observations

Time (CDT) Temp. Heat Index Dew Point Humidity Pressure Visibility Wind Dir Wind Speed Gust Speed Precip Events Conditions
12:56 AM 82.9 °F 84.2 °F 63.9 °F 52% 29.76 in 10.0 mi WSW 8.1 mph - N/A   Clear
1:56 AM 81.9 °F 83.2 °F 63.9 °F 54% 29.77 in 10.0 mi WSW 8.1 mph - N/A   Clear
2:56 AM 81.0 °F 82.5 °F 63.9 °F 56% 29.78 in 10.0 mi WSW 6.9 mph - N/A   Clear
3:56 AM 79.9 °F - 63.0 °F 56% 29.79 in 10.0 mi SW 8.1 mph - N/A   Clear
4:56 AM 77.9 °F - 63.0 °F 60% 29.80 in 10.0 mi SW 6.9 mph - N/A   Clear
5:56 AM 74.8 °F - 61.9 °F 64% 29.82 in 10.0 mi SW 5.8 mph - N/A   Clear
6:56 AM 74.8 °F - 63.0 °F 66% 29.84 in 10.0 mi SSW 4.6 mph - N/A   Clear
7:56 AM 77.9 °F - 63.9 °F 62% 29.85 in 10.0 mi SSW 8.1 mph - N/A   Clear
8:56 AM 81.9 °F 83.5 °F 64.9 °F 56% 29.86 in 10.0 mi WSW 8.1 mph - N/A   Clear
9:56 AM 84.9 °F 87.1 °F 65.8 °F 53% 29.87 in 10.0 mi WSW 11.5 mph - N/A   Clear
10:56 AM 86.9 °F 88.9 °F 65.8 °F 49% 29.88 in 10.0 mi SW 11.5 mph - N/A   Clear
11:56 AM 90.9 °F 94.0 °F 66.9 °F 45% 29.87 in 10.0 mi West 12.7 mph - N/A   Clear
12:56 PM 91.9 °F 94.5 °F 65.8 °F 42% 29.86 in 10.0 mi WSW 13.8 mph - N/A   Clear
1:56 PM 93.9 °F 96.1 °F 64.9 °F 38% 29.85 in 10.0 mi WSW 12.7 mph 17.3 mph N/A   Clear
2:56 PM 93.9 °F 94.4 °F 61.9 °F 34% 29.85 in 10.0 mi WSW 16.1 mph 24.2 mph N/A   Partly Cloudy
3:56 PM 93.9 °F 93.6 °F 59.9 °F 32% 29.85 in 10.0 mi WSW 21.9 mph 27.6 mph N/A   Partly Cloudy
4:56 PM 92.8 °F 93.5 °F 61.9 °F 36% 29.85 in 10.0 mi West 15.0 mph - N/A   Clear
5:56 PM 90.0 °F 91.3 °F 63.9 °F 42% 29.86 in 10.0 mi West 8.1 mph - N/A   Clear
6:56 PM 86.9 °F 88.1 °F 63.9 °F 46% 29.88 in 10.0 mi West 6.9 mph - N/A   Partly Cloudy
7:56 PM 83.8 °F 85.6 °F 64.9 °F 53% 29.90 in 10.0 mi NNW 11.5 mph - N/A   Partly Cloudy
8:56 PM 79.9 °F - 63.0 °F 56% 29.92 in 10.0 mi North 5.8 mph - N/A   Clear
9:56 PM 78.8 °F - 64.4 °F 61% 29.95 in 10.0 mi NNW 3.5 mph - N/A   Scattered Clouds
10:56 PM 74.8 °F - 65.8 °F 73% 29.94 in 10.0 mi Variable 3.5 mph - 0.00 in   Mostly Cloudy
11:56 PM 70.9 °F - 70.9 °F 100% 29.95 in 10.0 mi Calm Calm - 0.01 in   Mostly Cloudy